Hourly Weather Roundup
Issued by NWS Central Illinois

Home | Current Version | Previous Version | Text Only | Print | Product List | Glossary On
Versions: 1 2 3 4 5 6 7 8 9 10 11 12 13 14 15 16 17 18 19 20 21 22 23 24 25 26 27 28 29 30 31 32 33 34 35 36 37 38 39 40 41 42 43 44 45 46 47 48 49 50
000
NZUS43 KILX 270910
HWRILX

AREA WEATHER ROUNDUP
NATIONAL WEATHER SERVICE, LINCOLN IL
400 AM CDT WED JUL 27 2016


CITY           SKY/WX    TMP DP  RH WIND       PRES   REMARKS
BLOOMINGTON    CLEAR     70  68  93 CALM      30.01S
CHAMPAIGN      CLEAR     66  64  93 E3        30.00S
DANVILLE       CLEAR     64  63  99 CALM      29.98R FOG
DECATUR        CLEAR     67  64  90 CALM      30.00S
EFFINGHAM      PTCLDY    71  71 100 CALM      30.01S
FLORA          CLOUDY    74  73  97 N3        29.98S FOG
GALESBURG      CLEAR     65  64  97 CALM      30.01R
JACKSONVILLE   PTCLDY    71  68  90 SE3       29.98S
LACON          CLEAR     68  66  94 CALM      30.00R
LAWRENCEVILLE  PTCLDY    74  73  97 N3        29.98S
LITCHFIELD     NOT AVBL
$$


CITY           SKY/WX    TMP DP  RH WIND       PRES   REMARKS
LINCOLN        CLEAR     66  66 100 CALM      29.99S
MACOMB         CLEAR     67  66  98 CALM      30.02R
MATTOON        CLOUDY    69  65  86 CALM      29.99S
MT CARMEL AP   MOCLDY    73  72  95 CALM      29.98R
OLNEY-NOBLE AP PTCLDY    72  72 100 CALM      29.99S
PARIS          CLEAR     64  64 100 CALM      30.01S
PEORIA         CLEAR     70  69  97 CALM      30.00R
PONTIAC        NOT AVBL
RANTOUL        CLEAR     70  68  94 CALM      30.00S
ROBINSON       PTCLDY    69  69 100 CALM      30.00R FOG
SPRINGFIELD    CLEAR     72  68  87 SE5       29.99S
TAYLORVILLE    PTCLDY    70  68  93 MISG      29.99F
$$

...REGIONAL REPORTS...


CITY           SKY/WX    TMP DP  RH WIND       PRES   REMARKS
CHICAGO O`HARE CLEAR     70  63  78 CALM      29.99S
KANKAKEE       CLEAR     68  66  93 CALM      30.02R
MOLINE         CLOUDY    67  64  90 CALM      30.00R
MOUNT STERLING CLEAR     68  67  97 CALM      29.99R
MOUNT VERNON   PTCLDY    73  68  83 MISG      29.97S
PITTSFIELD     PTCLDY    71  71  98 CALM      30.00R
QUINCY         PTCLDY    72  69  90 SE3       29.99R
ROCKFORD       CLEAR     68  64  87 CALM      30.02S
$$


CITY           SKY/WX    TMP DP  RH WIND       PRES   REMARKS
BURLINGTON     PTCLDY    69  67  93 CALM      30.00R
CEDAR RAPIDS   CLEAR     66  66 100 CALM      30.00S
DES MOINES     PTCLDY    71  65  81 CALM      30.00S
KIRKSVILLE     PTCLDY    63  62  97 N3        30.02R
OTTUMWA        CLEAR     64  62  93 CALM      30.01R FOG
ST LOUIS       CLOUDY    79  74  84 S5        29.98R HX  82
$$


CITY           SKY/WX    TMP DP  RH WIND       PRES   REMARKS
TERRE HAUTE    CLEAR     67  65  93 N3        30.00R
EVANSVILLE     PTCLDY    76  74  93 NE5       29.97S
INDIANAPOLIS   PTCLDY    70  66  87 CALM      30.01R
LAFAYETTE      PTCLDY    64  64 100 CALM      30.00R FOG
MADISON        CLEAR     66  64  93 CALM      30.00S
MILWAUKEE      PTCLDY    74  65  73 SW5       29.99S
$$






USA.gov is the U.S. government's official web portal to all federal, state and local government web resources and services.